Retour au catalogue

STARLINK-35025

ActifCommunicationsVLEO
NORAD 65430·PAYLOAD·🇺🇸 United States

Lancé Aug 31, 2025 depuis Cape Canaveral Space Force Station

Loading…

Prochains Passages (prochaines 24 heures)

TLE

FraisSource: CelesTrak SupGP

Époque: Sep 15, 2026, 03:14 UTC

1 65430C 25192AC  26258.13520833 -.00024830  00000+0 -73379-3 0  2583
2 65430  53.1570  68.9262 0001166  92.4235  66.3396 15.34395110    19

Suivez STARLINK-35025 en temps réel avec AllMySat

Download on the App Store